TimeAEDT,TemperatureF,Dew PointF,Humidity,Sea Level PressureIn,VisibilityMPH,Wind Direction,Wind SpeedMPH,Gust SpeedMPH,PrecipitationIn,Events,Conditions,WindDirDegrees,DateUTC
12:00 AM,68,63,80,30.10,,East,4.6,,,,,80,2013-03-10 13:00:00
12:00 AM,68.0,62.6,83,30.09,6.2,East,4.6,-,N/A,,Unknown,80,2013-03-10 13:00:00
12:30 AM,66.2,62.6,88,30.09,6.2,East,4.6,-,N/A,,Unknown,90,2013-03-10 13:30:00
1:00 AM,66.2,62.6,88,30.06,6.2,SE,3.5,-,N/A,,Unknown,130,2013-03-10 14:00:00
1:30 AM,64.4,62.6,94,30.06,6.2,East,4.6,-,N/A,,Unknown,90,2013-03-10 14:30:00
2:00 AM,65,63,92,30.08,,ENE,4.6,,,,,70,2013-03-10 15:00:00
2:00 AM,64.4,62.6,94,30.06,6.2,ENE,4.6,-,N/A,,Scattered Clouds,70,2013-03-10 15:00:00
2:30 AM,64.4,60.8,88,30.06,6.2,East,2.3,-,N/A,,Unknown,90,2013-03-10 15:30:00
3:00 AM,63,61,92,30.07,,East,3.5,,,,,100,2013-03-10 16:00:00
3:00 AM,62.6,60.8,94,30.06,6.2,East,3.5,-,N/A,,Unknown,100,2013-03-10 16:00:00
3:30 AM,64.4,62.6,94,30.04,6.2,NE,4.6,-,N/A,,Unknown,50,2013-03-10 16:30:00
4:00 AM,62.6,60.8,94,30.06,6.2,Calm,Calm,-,N/A,,Unknown,0,2013-03-10 17:00:00
4:30 AM,62.6,60.8,94,30.06,6.2,Calm,Calm,-,N/A,,Unknown,0,2013-03-10 17:30:00
5:00 AM,64,62,90,30.07,,ENE,2.3,,,,,60,2013-03-10 18:00:00
5:00 AM,64.4,62.6,94,30.06,6.2,ENE,2.3,-,N/A,,Scattered Clouds,60,2013-03-10 18:00:00
5:30 AM,64.4,62.6,94,30.06,6.2,ENE,4.6,-,N/A,,Mostly Cloudy,70,2013-03-10 18:30:00
6:00 AM,66,65,95,30.08,12,ENE,4.6,,,,Partly Cloudy,60,2013-03-10 19:00:00
6:00 AM,66.2,64.4,94,30.06,6.2,ENE,4.6,-,N/A,,Mostly Cloudy,60,2013-03-10 19:00:00
6:30 AM,66.2,64.4,94,30.06,6.2,ENE,3.5,-,N/A,,Mostly Cloudy,60,2013-03-10 19:30:00
7:00 AM,66.2,64.4,94,30.09,-9999.0,ENE,2.3,-,N/A,,Clear,70,2013-03-10 20:00:00
7:30 AM,66.2,64.4,94,30.09,-9999.0,Calm,Calm,-,N/A,,Clear,0,2013-03-10 20:30:00
8:00 AM,69,67,92,30.12,,Calm,Calm,,,,,,2013-03-10 21:00:00
8:00 AM,69.8,68.0,94,30.09,-9999.0,Calm,Calm,-,N/A,,Clear,0,2013-03-10 21:00:00
8:30 AM,71.6,68.0,88,30.12,-9999.0,Calm,Calm,-,N/A,,Clear,0,2013-03-10 21:30:00
9:00 AM,75.2,66.2,73,30.12,6.2,ESE,1.2,-,N/A,,Scattered Clouds,110,2013-03-10 22:00:00
9:30 AM,75.2,66.2,73,30.12,6.2,SE,1.2,-,N/A,,Scattered Clouds,130,2013-03-10 22:30:00
10:00 AM,77.0,64.4,65,30.12,6.2,East,5.8,-,N/A,,Scattered Clouds,100,2013-03-10 23:00:00
10:30 AM,77.0,62.6,61,30.12,6.2,ESE,8.1,-,N/A,,Scattered Clouds,110,2013-03-10 23:30:00
11:00 AM,77,63,53,30.15,,East,8.1,,,,,100,2013-03-11 00:00:00
11:00 AM,77.0,62.6,61,30.12,6.2,East,8.1,-,N/A,,Mostly Cloudy,100,2013-03-11 00:00:00
11:30 AM,77.0,64.4,65,30.12,6.2,East,6.9,-,N/A,,Mostly Cloudy,100,2013-03-11 00:30:00
12:00 PM,74,65,67,30.15,16,East,12.7,,,Rain,Light Rain Showers,100,2013-03-11 01:00:00
12:00 PM,75.2,66.2,73,30.12,6.2,East,12.7,-,N/A,Rain,Light Rain Showers,100,2013-03-11 01:00:00
12:30 PM,75.2,64.4,69,30.12,6.2,East,9.2,-,N/A,,Scattered Clouds,80,2013-03-11 01:30:00
1:00 PM,77.0,64.4,65,30.12,6.2,ESE,9.2,-,N/A,,Scattered Clouds,110,2013-03-11 02:00:00
1:30 PM,77.0,62.6,61,30.12,6.2,East,8.1,-,N/A,,Scattered Clouds,90,2013-03-11 02:30:00
2:00 PM,80.6,59.0,48,30.09,6.2,NE,8.1,-,N/A,,Scattered Clouds,50,2013-03-11 03:00:00
2:30 PM,78.8,60.8,54,30.09,6.2,East,5.8,-,N/A,,Mostly Cloudy,90,2013-03-11 03:30:00
3:00 PM,79,62,46,30.10,19,ESE,13.8,,,,Partly Cloudy,110,2013-03-11 04:00:00
3:00 PM,78.8,62.6,57,30.09,6.2,ESE,13.8,-,N/A,,Mostly Cloudy,110,2013-03-11 04:00:00
3:30 PM,77.0,60.8,57,30.09,6.2,ESE,13.8,-,N/A,,Mostly Cloudy,120,2013-03-11 04:30:00
4:00 PM,77.0,60.8,57,30.06,6.2,SE,12.7,-,N/A,,Mostly Cloudy,130,2013-03-11 05:00:00
4:30 PM,77.0,62.6,61,30.06,6.2,East,13.8,-,N/A,,Mostly Cloudy,100,2013-03-11 05:30:00
5:00 PM,76,65,60,30.09,,East,11.5,,,,,100,2013-03-11 06:00:00
5:00 PM,77.0,64.4,65,30.06,6.2,East,11.5,-,N/A,,Mostly Cloudy,100,2013-03-11 06:00:00
5:30 PM,75.2,64.4,69,30.06,6.2,East,11.5,-,N/A,,Mostly Cloudy,100,2013-03-11 06:30:00
6:00 PM,75,64,62,30.10,,East,12.7,,,,Overcast,100,2013-03-11 07:00:00
6:00 PM,75.2,64.4,69,30.09,6.2,East,12.7,-,N/A,,Scattered Clouds,100,2013-03-11 07:00:00
7:00 PM,73.4,62.6,69,30.09,6.2,ENE,10.4,-,N/A,,Scattered Clouds,60,2013-03-11 08:00:00
7:30 PM,73.4,62.6,69,30.09,6.2,ENE,6.9,-,N/A,,Scattered Clouds,70,2013-03-11 08:30:00
8:00 PM,72,62,64,30.12,,ENE,6.9,,,,,70,2013-03-11 09:00:00
8:00 PM,73.4,62.6,69,30.12,-9999.0,ENE,6.9,-,N/A,,Clear,70,2013-03-11 09:00:00
8:30 PM,71.6,62.6,73,30.12,-9999.0,East,5.8,-,N/A,,Clear,90,2013-03-11 09:30:00
9:00 PM,71,63,70,30.14,,ENE,5.8,,,,Overcast,70,2013-03-11 10:00:00
9:00 PM,71.6,62.6,73,30.12,-9999.0,ENE,5.8,-,N/A,,Clear,70,2013-03-11 10:00:00
9:30 PM,69.8,62.6,78,30.12,6.2,NE,5.8,-,N/A,,Overcast,50,2013-03-11 10:30:00
10:00 PM,69.8,62.6,78,30.15,6.2,ENE,4.6,-,N/A,,Overcast,70,2013-03-11 11:00:00
10:30 PM,68.0,64.4,88,30.15,6.2,East,3.5,-,N/A,,Scattered Clouds,80,2013-03-11 11:30:00
11:00 PM,68,64,82,30.15,,East,3.5,,,,,90,2013-03-11 12:00:00
11:00 PM,68.0,64.4,88,30.15,6.2,East,3.5,-,N/A,,Scattered Clouds,90,2013-03-11 12:00:00
11:30 PM,66.2,64.4,94,30.15,6.2,NNE,3.5,-,N/A,,Mostly Cloudy,20,2013-03-11 12:30:00